Time,TemperatureF,DewpointF,PressureIn,WindDirection,WindDirectionDegrees,WindSpeedMPH,WindSpeedGustMPH,Humidity,HourlyPrecipIn,Conditions,Clouds,dailyrainin,SoftwareType,DateUTC
2013-04-06 00:00:00,53.4,45.6,29.86,ENE,68,0.0,0.0,75,0.00,,,0.00,WUHU216HW,2013-04-05 22:00:00,
2013-04-06 00:05:00,53.2,45.1,29.86,North,0,0.0,0.0,74,0.00,,,0.00,WUHU216HW,2013-04-05 22:05:00,
2013-04-06 00:10:00,52.8,44.8,29.86,NE,45,0.0,1.1,74,0.00,,,0.00,WUHU216HW,2013-04-05 22:10:00,
2013-04-06 00:15:00,52.5,44.1,29.86,West,270,0.0,1.3,73,0.00,,,0.00,WUHU216HW,2013-04-05 22:15:00,
2013-04-06 00:20:00,52.1,44.1,29.86,West,270,0.0,1.3,74,0.00,,,0.00,WUHU216HW,2013-04-05 22:20:00,
2013-04-06 00:25:00,52.1,43.7,29.86,SSE,158,0.0,1.3,73,0.00,,,0.00,WUHU216HW,2013-04-05 22:25:00,
2013-04-06 00:30:00,52.3,43.9,29.86,SSE,158,0.0,1.3,73,0.00,,,0.00,WUHU216HW,2013-04-05 22:30:00,
2013-04-06 00:35:00,51.9,43.6,29.86,SSE,158,0.0,0.0,73,0.00,,,0.00,WUHU216HW,2013-04-05 22:35:00,
2013-04-06 00:40:00,51.9,42.9,29.86,NNW,338,0.0,0.0,71,0.00,,,0.00,WUHU216HW,2013-04-05 22:40:00,
2013-04-06 00:45:00,51.4,42.4,29.86,WNW,293,0.0,0.0,71,0.00,,,0.00,WUHU216HW,2013-04-05 22:45:00,
2013-04-06 00:50:00,51.0,42.0,29.86,WSW,248,0.0,0.0,71,0.00,,,0.00,WUHU216HW,2013-04-05 22:50:00,
2013-04-06 00:55:00,50.7,41.7,29.86,WSW,248,0.0,0.0,71,0.00,,,0.00,WUHU216HW,2013-04-05 22:55:00,
2013-04-06 01:00:00,50.7,40.9,29.86,North,0,1.1,1.1,69,0.00,,,0.00,WUHU216HW,2013-04-05 23:00:00,
2013-04-06 01:05:00,50.7,40.9,29.86,NE,45,0.0,1.3,69,0.00,,,0.00,WUHU216HW,2013-04-05 23:05:00,
2013-04-06 01:11:00,50.5,40.7,29.86,SE,135,1.5,1.5,69,0.00,,,0.00,WUHU216HW,2013-04-05 23:11:00,
2013-04-06 01:16:00,50.5,39.9,29.86,SE,135,0.0,1.5,67,0.00,,,0.00,WUHU216HW,2013-04-05 23:16:00,
2013-04-06 01:21:00,50.7,40.1,29.86,SE,135,0.0,1.5,67,0.00,,,0.00,WUHU216HW,2013-04-05 23:21:00,
2013-04-06 01:26:00,51.0,40.0,29.86,SSE,158,0.0,0.0,66,0.00,,,0.00,WUHU216HW,2013-04-05 23:26:00,
2013-04-06 01:31:00,51.4,40.4,29.86,SSE,158,0.0,0.0,66,0.00,,,0.00,WUHU216HW,2013-04-05 23:31:00,
2013-04-06 01:36:00,51.4,40.4,29.86,SSE,158,0.0,0.0,66,0.00,,,0.00,WUHU216HW,2013-04-05 23:36:00,
2013-04-06 01:41:00,51.4,40.8,29.86,South,180,0.8,0.8,67,0.00,,,0.00,WUHU216HW,2013-04-05 23:41:00,
2013-04-06 01:46:00,50.9,40.3,29.86,North,0,0.0,0.8,67,0.00,,,0.00,WUHU216HW,2013-04-05 23:46:00,
2013-04-06 01:51:00,50.7,39.7,29.86,North,0,0.0,0.6,66,0.00,,,0.00,WUHU216HW,2013-04-05 23:51:00,
2013-04-06 01:56:00,50.3,39.7,29.86,North,0,0.0,0.0,67,0.00,,,0.00,WUHU216HW,2013-04-05 23:56:00,
2013-04-06 02:01:00,50.1,39.6,29.86,NNW,338,0.0,0.0,67,0.00,,,0.00,WUHU216HW,2013-04-06 00:01:00,
2013-04-06 02:06:00,50.1,39.2,29.86,WNW,293,0.0,0.0,66,0.00,,,0.00,WUHU216HW,2013-04-06 00:06:00,
2013-04-06 02:11:00,50.1,39.2,29.86,WNW,293,0.0,0.0,66,0.00,,,0.00,WUHU216HW,2013-04-06 00:11:00,
2013-04-06 02:17:00,49.8,38.4,29.86,North,0,0.0,0.0,66,0.00,,,0.00,WUHU216HW,2013-04-06 00:17:00,
2013-04-06 02:22:00,49.6,38.6,29.86,NNE,23,0.0,0.0,66,0.00,,,0.00,WUHU216HW,2013-04-06 00:22:00,
2013-04-06 02:27:00,49.8,38.4,29.86,ENE,68,0.0,0.0,65,0.00,,,0.00,WUHU216HW,2013-04-06 00:27:00,
2013-04-06 02:32:00,49.8,37.6,29.86,ENE,68,0.0,0.0,63,0.00,,,0.00,WUHU216HW,2013-04-06 00:32:00,
2013-04-06 02:37:00,50.1,37.2,29.86,NNE,23,0.0,0.0,61,0.00,,,0.00,WUHU216HW,2013-04-06 00:37:00,
2013-04-06 02:42:00,50.1,37.6,29.86,ENE,68,0.0,0.0,62,0.00,,,0.00,WUHU216HW,2013-04-06 00:42:00,
2013-04-06 02:47:00,50.0,37.4,29.86,East,90,0.0,0.0,62,0.00,,,0.00,WUHU216HW,2013-04-06 00:47:00,
2013-04-06 02:52:00,50.1,36.8,29.86,ENE,68,0.0,0.0,60,0.00,,,0.00,WUHU216HW,2013-04-06 00:52:00,
2013-04-06 02:57:00,50.0,36.8,29.86,NNE,23,0.0,0.0,61,0.00,,,0.00,WUHU216HW,2013-04-06 00:57:00,
2013-04-06 03:02:00,49.8,36.8,29.86,NNE,23,0.0,0.0,61,0.00,,,0.00,WUHU216HW,2013-04-06 01:02:00,
2013-04-06 03:07:00,49.8,36.8,29.86,SE,135,0.0,0.0,61,0.00,,,0.00,WUHU216HW,2013-04-06 01:07:00,
2013-04-06 03:12:00,49.8,36.8,29.85,South,180,0.0,0.0,61,0.00,,,0.00,WUHU216HW,2013-04-06 01:12:00,
2013-04-06 03:17:00,50.0,36.6,29.85,SSW,203,0.0,0.0,60,0.00,,,0.00,WUHU216HW,2013-04-06 01:17:00,
2013-04-06 03:22:00,50.1,36.8,29.85,SW,225,0.0,0.0,60,0.00,,,0.00,WUHU216HW,2013-04-06 01:22:00,
2013-04-06 03:28:00,50.1,36.8,29.86,South,180,0.0,0.0,60,0.00,,,0.00,WUHU216HW,2013-04-06 01:28:00,
2013-04-06 03:33:00,50.5,36.7,29.85,SE,135,0.0,0.0,59,0.00,,,0.00,WUHU216HW,2013-04-06 01:33:00,
2013-04-06 03:38:00,50.5,36.7,29.85,ESE,113,1.3,1.5,59,0.00,,,0.00,WUHU216HW,2013-04-06 01:38:00,
2013-04-06 03:43:00,50.7,36.8,29.85,East,90,0.0,1.5,59,0.00,,,0.00,WUHU216HW,2013-04-06 01:43:00,
2013-04-06 03:48:00,50.7,36.8,29.85,ESE,113,0.0,0.6,59,0.00,,,0.00,WUHU216HW,2013-04-06 01:48:00,
2013-04-06 03:53:00,50.5,37.1,29.85,ENE,68,0.0,0.0,60,0.00,,,0.00,WUHU216HW,2013-04-06 01:53:00,
2013-04-06 03:58:00,50.5,37.1,29.85,ESE,113,0.0,0.0,60,0.00,,,0.00,WUHU216HW,2013-04-06 01:58:00,
2013-04-06 04:03:00,50.5,36.7,29.85,NE,45,0.0,1.1,59,0.00,,,0.00,WUHU216HW,2013-04-06 02:03:00,
2013-04-06 04:08:00,50.1,37.2,29.85,NNW,338,0.0,1.1,61,0.00,,,0.00,WUHU216HW,2013-04-06 02:08:00,
2013-04-06 04:13:00,49.6,36.7,29.86,West,270,0.0,0.6,61,0.00,,,0.00,WUHU216HW,2013-04-06 02:13:00,
2013-04-06 04:18:00,49.2,36.4,29.86,West,270,0.0,0.0,61,0.00,,,0.00,WUHU216HW,2013-04-06 02:18:00,
2013-04-06 04:23:00,49.2,36.4,29.85,SSE,158,0.0,0.0,61,0.00,,,0.00,WUHU216HW,2013-04-06 02:23:00,
2013-04-06 04:28:00,49.8,36.0,29.85,SSE,158,0.0,0.0,59,0.00,,,0.00,WUHU216HW,2013-04-06 02:28:00,
2013-04-06 04:33:00,50.3,35.2,29.86,East,90,2.0,2.0,56,0.00,,,0.00,WUHU216HW,2013-04-06 02:33:00,
2013-04-06 04:38:00,50.5,34.4,29.85,East,90,0.8,2.0,54,0.00,,,0.00,WUHU216HW,2013-04-06 02:38:00,
2013-04-06 04:43:00,50.5,34.9,29.85,NE,45,0.0,1.7,55,0.00,,,0.00,WUHU216HW,2013-04-06 02:43:00,
2013-04-06 04:48:00,50.1,35.4,29.85,NE,45,0.0,0.0,57,0.00,,,0.00,WUHU216HW,2013-04-06 02:48:00,
2013-04-06 04:53:00,49.8,35.6,29.85,ENE,68,0.0,0.0,58,0.00,,,0.00,WUHU216HW,2013-04-06 02:53:00,
2013-04-06 04:58:00,49.6,35.4,29.85,ENE,68,0.0,0.0,58,0.00,,,0.00,WUHU216HW,2013-04-06 02:58:00,
2013-04-06 05:03:00,49.6,34.5,29.85,East,90,0.6,0.6,56,0.00,,,0.00,WUHU216HW,2013-04-06 03:03:00,
2013-04-06 05:08:00,49.6,34.0,29.85,SE,135,1.1,1.1,55,0.00,,,0.00,WUHU216HW,2013-04-06 03:08:00,
2013-04-06 05:13:00,50.0,33.5,29.85,ENE,68,0.0,1.3,53,0.00,,,0.00,WUHU216HW,2013-04-06 03:13:00,
2013-04-06 05:18:00,50.1,33.6,29.85,East,90,1.5,1.5,53,0.00,,,0.00,WUHU216HW,2013-04-06 03:18:00,
2013-04-06 05:23:00,49.8,33.8,29.84,SE,135,0.0,1.7,54,0.00,,,0.00,WUHU216HW,2013-04-06 03:23:00,
2013-04-06 05:28:00,49.8,33.8,29.84,South,180,0.0,1.7,54,0.00,,,0.00,WUHU216HW,2013-04-06 03:28:00,
2013-04-06 05:33:00,49.2,35.1,29.84,North,0,0.0,0.8,58,0.00,,,0.00,WUHU216HW,2013-04-06 03:33:00,
2013-04-06 05:39:00,48.7,35.0,29.84,WNW,293,0.0,0.8,59,0.00,,,0.00,WUHU216HW,2013-04-06 03:39:00,
2013-04-06 05:44:00,48.2,34.1,29.84,WSW,248,0.0,0.0,58,0.00,,,0.00,WUHU216HW,2013-04-06 03:44:00,
2013-04-06 05:49:00,48.0,33.9,29.84,West,270,1.5,1.5,58,0.00,,,0.00,WUHU216HW,2013-04-06 03:49:00,
2013-04-06 05:54:00,48.0,33.9,29.84,WSW,248,0.8,1.5,58,0.00,,,0.00,WUHU216HW,2013-04-06 03:54:00,
2013-04-06 05:59:00,48.0,33.0,29.84,North,0,0.0,1.5,56,0.00,,,0.00,WUHU216HW,2013-04-06 03:59:00,
2013-04-06 06:00:00,48.0,33.0,29.84,North,0,0.0,1.5,56,0.00,,,0.00,WUHU216HW,2013-04-06 04:00:00,
2013-04-06 06:05:00,48.0,33.4,29.84,NE,45,0.0,0.0,57,0.00,,,0.00,WUHU216HW,2013-04-06 04:05:00,
2013-04-06 06:10:00,48.0,33.9,29.84,NNE,23,0.0,0.0,58,0.00,,,0.00,WUHU216HW,2013-04-06 04:10:00,
2013-04-06 06:15:00,47.8,32.8,29.84,ENE,68,0.0,1.1,56,0.00,,,0.00,WUHU216HW,2013-04-06 04:15:00,
2013-04-06 06:20:00,47.8,32.3,29.84,NE,45,1.3,1.3,55,0.00,,,0.00,WUHU216HW,2013-04-06 04:20:00,
2013-04-06 06:25:00,48.3,31.0,29.84,ENE,68,0.0,2.0,51,0.00,,,0.00,WUHU216HW,2013-04-06 04:25:00,
2013-04-06 06:30:00,48.5,32.1,29.84,NNE,23,0.0,2.0,53,0.00,,,0.00,WUHU216HW,2013-04-06 04:30:00,
2013-04-06 06:35:00,48.3,32.8,29.84,NE,45,0.0,0.6,55,0.00,,,0.00,WUHU216HW,2013-04-06 04:35:00,
2013-04-06 06:40:00,48.3,32.8,29.84,East,90,1.3,1.7,55,0.00,,,0.00,WUHU216HW,2013-04-06 04:40:00,
2013-04-06 06:45:00,48.3,32.8,29.84,ENE,68,0.6,2.0,55,0.00,,,0.00,WUHU216HW,2013-04-06 04:45:00,
2013-04-06 06:50:00,48.7,33.6,29.84,ENE,68,1.1,2.0,56,0.00,,,0.00,WUHU216HW,2013-04-06 04:50:00,
2013-04-06 06:55:00,48.7,34.1,29.84,ESE,113,2.0,2.4,57,0.00,,,0.00,WUHU216HW,2013-04-06 04:55:00,
2013-04-06 07:00:00,48.9,34.7,29.84,ENE,68,2.0,2.4,57,0.00,,,0.00,WUHU216HW,2013-04-06 05:00:00,
2013-04-06 07:05:00,48.9,36.0,29.84,ENE,68,0.0,2.2,61,0.00,,,0.00,WUHU216HW,2013-04-06 05:05:00,
2013-04-06 07:10:00,48.7,36.6,29.84,NE,45,0.0,1.5,63,0.00,,,0.00,WUHU216HW,2013-04-06 05:10:00,
2013-04-06 07:15:00,48.5,36.5,29.84,SE,135,0.0,1.5,63,0.00,,,0.00,WUHU216HW,2013-04-06 05:15:00,
2013-04-06 07:20:00,49.1,35.8,29.84,ENE,68,0.0,0.0,60,0.00,,,0.00,WUHU216HW,2013-04-06 05:20:00,
2013-04-06 07:25:00,50.5,37.4,29.84,ESE,113,1.5,1.5,61,0.00,,,0.00,WUHU216HW,2013-04-06 05:25:00,
2013-04-06 07:30:00,51.4,40.0,29.84,East,90,0.0,1.5,65,0.00,,,0.00,WUHU216HW,2013-04-06 05:30:00,
2013-04-06 07:35:00,51.4,41.6,29.84,SSW,203,0.0,0.0,69,0.00,,,0.00,WUHU216HW,2013-04-06 05:35:00,
2013-04-06 07:40:00,51.4,42.0,29.84,WNW,293,0.0,0.0,70,0.00,,,0.00,WUHU216HW,2013-04-06 05:40:00,
2013-04-06 07:45:00,50.9,42.9,29.84,NNW,338,0.0,1.1,74,0.00,,,0.00,WUHU216HW,2013-04-06 05:45:00,
2013-04-06 07:50:00,51.0,43.2,29.84,NNW,338,0.0,1.1,74,0.00,,,0.00,WUHU216HW,2013-04-06 05:50:00,
2013-04-06 07:55:00,52.5,44.1,29.84,NW,315,0.0,0.0,73,0.00,,,0.00,WUHU216HW,2013-04-06 05:55:00,
2013-04-06 08:00:00,52.8,45.1,29.84,NW,315,0.0,0.0,75,0.00,,,0.00,WUHU216HW,2013-04-06 06:00:00,
2013-04-06 08:05:00,54.3,46.5,29.84,NW,315,0.0,0.0,75,0.00,,,0.00,WUHU216HW,2013-04-06 06:05:00,
2013-04-06 08:10:00,55.9,48.4,29.84,NW,315,0.0,0.0,76,0.00,,,0.00,WUHU216HW,2013-04-06 06:10:00,
2013-04-06 08:15:00,55.4,47.9,29.84,South,180,0.0,0.0,76,0.00,,,0.00,WUHU216HW,2013-04-06 06:15:00,
2013-04-06 08:21:00,55.0,47.5,29.84,WSW,248,0.0,1.7,76,0.00,,,0.00,WUHU216HW,2013-04-06 06:21:00,
2013-04-06 08:26:00,55.2,47.7,29.84,WSW,248,0.0,1.7,76,0.00,,,0.00,WUHU216HW,2013-04-06 06:26:00,
2013-04-06 08:31:00,55.2,47.7,29.84,WNW,293,0.0,1.1,76,0.00,,,0.00,WUHU216HW,2013-04-06 06:31:00,
2013-04-06 08:36:00,54.5,47.0,29.84,West,270,1.5,2.0,76,0.00,,,0.00,WUHU216HW,2013-04-06 06:36:00,
2013-04-06 08:41:00,54.1,46.7,29.84,West,270,2.0,2.4,76,0.00,,,0.00,WUHU216HW,2013-04-06 06:41:00,
2013-04-06 08:46:00,54.1,47.0,29.84,NW,315,1.7,2.4,77,0.00,,,0.00,WUHU216HW,2013-04-06 06:46:00,
2013-04-06 08:51:00,54.6,47.2,29.84,NW,315,0.0,1.7,76,0.00,,,0.00,WUHU216HW,2013-04-06 06:51:00,
2013-04-06 08:56:00,55.2,47.7,29.84,North,0,1.5,1.5,76,0.00,,,0.00,WUHU216HW,2013-04-06 06:56:00,
2013-04-06 09:01:00,56.1,48.5,29.84,ENE,68,0.0,1.5,76,0.00,,,0.00,WUHU216HW,2013-04-06 07:01:00,
2013-04-06 09:06:00,58.2,49.6,29.84,East,90,1.5,1.5,73,0.00,,,0.00,WUHU216HW,2013-04-06 07:06:00,
2013-04-06 09:11:00,59.1,50.1,29.84,ENE,68,2.4,2.4,72,0.00,,,0.00,WUHU216HW,2013-04-06 07:11:00,
2013-04-06 09:16:00,59.9,49.7,29.85,ENE,59,1.6,2.4,69,0.00,,,0.00,WUHU216HW,2013-04-06 07:16:00,
2013-04-06 09:22:00,60.4,50.3,29.85,North,0,1.1,2.2,69,0.00,,,0.00,WUHU216HW,2013-04-06 07:22:00,
2013-04-06 09:27:00,60.4,49.8,29.85,North,0,0.0,1.1,68,0.00,,,0.00,WUHU216HW,2013-04-06 07:27:00,
2013-04-06 09:32:00,59.9,49.3,29.85,NW,315,0.0,0.0,68,0.00,,,0.00,WUHU216HW,2013-04-06 07:32:00,
2013-04-06 09:37:00,59.9,48.9,29.85,NW,315,0.0,0.0,67,0.00,,,0.00,WUHU216HW,2013-04-06 07:37:00,
2013-04-06 09:42:00,61.7,50.2,29.86,SE,135,0.0,0.0,66,0.00,,,0.00,WUHU216HW,2013-04-06 07:42:00,
2013-04-06 09:47:00,62.7,49.9,29.86,NW,315,0.0,0.0,63,0.00,,,0.00,WUHU216HW,2013-04-06 07:47:00,
2013-04-06 09:52:00,62.4,49.6,29.86,NW,315,0.0,0.6,63,0.00,,,0.00,WUHU216HW,2013-04-06 07:52:00,
2013-04-06 09:57:00,62.9,50.5,29.86,ENE,68,0.0,0.6,64,0.00,,,0.00,WUHU216HW,2013-04-06 07:57:00,
2013-04-06 10:02:00,64.0,50.7,29.86,ESE,113,0.0,0.0,62,0.00,,,0.00,WUHU216HW,2013-04-06 08:02:00,
2013-04-06 10:07:00,63.5,50.0,29.86,SSW,212,1.8,2.4,62,0.00,,,0.00,WUHU216HW,2013-04-06 08:07:00,
2013-04-06 10:12:00,62.2,49.4,29.86,SSE,158,0.0,2.4,63,0.00,,,0.00,WUHU216HW,2013-04-06 08:12:00,
2013-04-06 10:17:00,62.2,49.4,29.86,SSE,158,2.7,2.9,63,0.00,,,0.00,WUHU216HW,2013-04-06 08:17:00,
2013-04-06 10:22:00,62.2,49.4,29.86,SE,135,0.8,2.9,63,0.00,,,0.00,WUHU216HW,2013-04-06 08:22:00,
2013-04-06 10:29:00,63.5,49.3,29.86,ESE,113,0.0,2.0,60,0.00,,,0.00,WUHU216HW,2013-04-06 08:29:00,
2013-04-06 10:34:00,64.0,49.3,29.86,East,90,0.0,2.0,59,0.00,,,0.00,WUHU216HW,2013-04-06 08:34:00,
2013-04-06 10:39:00,63.6,48.7,29.86,SSW,211,3.2,5.1,58,0.00,,,0.00,WUHU216HW,2013-04-06 08:39:00,
2013-04-06 10:44:00,63.6,48.8,29.86,NNE,23,0.0,5.3,59,0.00,,,0.00,WUHU216HW,2013-04-06 08:44:00,
2013-04-06 10:49:00,64.2,48.0,29.86,SW,230,3.2,5.3,56,0.00,,,0.00,WUHU216HW,2013-04-06 08:49:00,
2013-04-06 10:54:00,63.6,47.5,29.86,North,0,0.0,5.1,56,0.00,,,0.00,WUHU216HW,2013-04-06 08:54:00,
2013-04-06 10:59:00,63.6,47.5,29.86,West,270,1.7,1.7,56,0.00,,,0.00,WUHU216HW,2013-04-06 08:59:00,
2013-04-06 11:04:00,63.5,47.9,29.86,West,270,1.4,3.3,57,0.00,,,0.00,WUHU216HW,2013-04-06 09:04:00,
2013-04-06 11:09:00,64.2,48.7,29.86,West,270,5.8,5.8,57,0.00,,,0.00,WUHU216HW,2013-04-06 09:09:00,
2013-04-06 11:14:00,63.6,47.1,29.86,WNW,293,0.0,5.8,55,0.00,,,0.00,WUHU216HW,2013-04-06 09:14:00,
2013-04-06 11:19:00,63.6,46.1,29.85,NW,322,1.7,4.0,53,0.00,,,0.00,WUHU216HW,2013-04-06 09:19:00,
2013-04-06 11:24:00,64.0,45.9,29.85,NW,315,2.4,2.6,52,0.00,,,0.00,WUHU216HW,2013-04-06 09:24:00,
2013-04-06 11:29:00,64.0,45.4,29.85,NW,315,1.5,2.4,51,0.00,,,0.00,WUHU216HW,2013-04-06 09:29:00,
2013-04-06 11:34:00,64.2,46.1,29.85,WSW,250,2.0,2.9,52,0.00,,,0.00,WUHU216HW,2013-04-06 09:34:00,
2013-04-06 11:39:00,65.1,47.0,29.85,West,270,0.6,2.9,52,0.00,,,0.00,WUHU216HW,2013-04-06 09:39:00,
2013-04-06 11:44:00,65.4,46.4,29.84,West,279,2.8,3.5,50,0.00,,,0.00,WUHU216HW,2013-04-06 09:44:00,
2013-04-06 11:50:00,65.4,46.4,29.85,NNW,338,2.2,3.5,50,0.00,,,0.00,WUHU216HW,2013-04-06 09:50:00,
2013-04-06 11:55:00,65.4,45.8,29.84,West,270,0.0,3.1,49,0.00,,,0.00,WUHU216HW,2013-04-06 09:55:00,
2013-04-06 12:00:00,65.4,45.8,29.84,West,270,6.4,6.4,49,0.00,,,0.00,WUHU216HW,2013-04-06 10:00:00,
2013-04-06 12:05:00,65.4,44.6,29.84,NNW,338,3.1,6.4,47,0.00,,,0.00,WUHU216HW,2013-04-06 10:05:00,
2013-04-06 12:10:00,65.8,44.7,29.84,ENE,68,2.4,3.5,47,0.00,,,0.00,WUHU216HW,2013-04-06 10:10:00,
2013-04-06 12:16:00,65.8,44.9,29.84,NW,315,1.3,3.5,47,0.00,,,0.00,WUHU216HW,2013-04-06 10:16:00,
2013-04-06 12:21:00,66.3,45.5,29.84,NW,321,2.0,2.9,47,0.00,,,0.00,WUHU216HW,2013-04-06 10:21:00,
2013-04-06 12:26:00,66.3,44.9,29.84,NNW,338,2.4,5.1,46,0.00,,,0.00,WUHU216HW,2013-04-06 10:26:00,
2013-04-06 12:32:00,66.5,45.6,29.83,ESE,113,3.1,5.1,47,0.00,,,0.00,WUHU216HW,2013-04-06 10:32:00,
2013-04-06 12:37:00,67.8,45.0,29.83,NW,322,4.0,5.1,44,0.00,,,0.00,WUHU216HW,2013-04-06 10:37:00,
2013-04-06 12:42:00,67.2,45.7,29.83,West,270,5.1,5.1,46,0.00,,,0.00,WUHU216HW,2013-04-06 10:42:00,
2013-04-06 12:47:00,66.9,45.9,29.83,West,270,3.8,9.6,47,0.00,,,0.00,WUHU216HW,2013-04-06 10:47:00,
2013-04-06 12:52:00,66.7,45.2,29.83,NW,324,4.9,9.6,46,0.00,,,0.00,WUHU216HW,2013-04-06 10:52:00,
2013-04-06 12:57:00,66.9,45.9,29.83,SW,225,8.0,10.9,47,0.00,,,0.00,WUHU216HW,2013-04-06 10:57:00,
2013-04-06 13:02:00,67.1,45.5,29.83,NNW,338,3.3,10.9,46,0.00,,,0.00,WUHU216HW,2013-04-06 11:02:00,
2013-04-06 13:07:00,67.2,45.7,29.82,North,0,6.4,6.4,46,0.00,,,0.00,WUHU216HW,2013-04-06 11:07:00,
2013-04-06 13:12:00,67.1,45.5,29.82,WNW,296,3.8,6.4,46,0.00,,,0.00,WUHU216HW,2013-04-06 11:12:00,
2013-04-06 13:17:00,67.4,45.8,29.82,West,270,7.1,7.1,46,0.00,,,0.00,WUHU216HW,2013-04-06 11:17:00,
2013-04-06 13:22:00,67.1,46.1,29.82,West,270,2.5,7.1,47,0.00,,,0.00,WUHU216HW,2013-04-06 11:22:00,
2013-04-06 13:27:00,66.5,45.6,29.82,North,0,4.0,5.1,47,0.00,,,0.00,WUHU216HW,2013-04-06 11:27:00,
2013-04-06 13:32:00,66.7,46.4,29.82,WNW,301,2.8,4.6,48,0.00,,,0.00,WUHU216HW,2013-04-06 11:32:00,
2013-04-06 13:33:00,66.7,46.4,29.82,WNW,301,2.8,4.6,48,0.00,,,0.00,WUHU216HW,2013-04-06 11:33:00,
2013-04-06 13:38:00,66.9,45.9,29.82,NW,307,2.7,3.5,47,0.00,,,0.00,WUHU216HW,2013-04-06 11:38:00,
2013-04-06 13:43:00,66.9,46.5,29.82,WSW,248,3.1,4.0,48,0.00,,,0.00,WUHU216HW,2013-04-06 11:43:00,
2013-04-06 13:48:00,67.1,46.1,29.82,NNE,16,2.5,4.0,47,0.00,,,0.00,WUHU216HW,2013-04-06 11:48:00,
2013-04-06 13:53:00,67.4,46.4,29.81,East,85,2.9,3.8,46,0.00,,,0.00,WUHU216HW,2013-04-06 11:53:00,
2013-04-06 13:58:00,67.6,46.0,29.81,SE,135,2.6,3.8,46,0.00,,,0.00,WUHU216HW,2013-04-06 11:58:00,
2013-04-06 14:03:00,67.1,46.1,29.82,South,171,5.3,6.2,47,0.00,,,0.00,WUHU216HW,2013-04-06 12:03:00,
2013-04-06 14:08:00,68.0,47.5,29.81,South,182,1.3,6.2,48,0.00,,,0.00,WUHU216HW,2013-04-06 12:08:00,
2013-04-06 14:13:00,69.4,47.0,29.81,WNW,293,1.7,4.6,45,0.00,,,0.00,WUHU216HW,2013-04-06 12:13:00,
2013-04-06 14:18:00,67.8,46.7,29.81,WSW,248,1.5,3.8,47,0.00,,,0.00,WUHU216HW,2013-04-06 12:18:00,
2013-04-06 14:23:00,67.2,46.3,29.81,WNW,293,1.5,3.8,47,0.00,,,0.00,WUHU216HW,2013-04-06 12:23:00,
2013-04-06 14:28:00,66.7,46.4,29.81,ESE,113,2.2,4.4,48,0.00,,,0.00,WUHU216HW,2013-04-06 12:28:00,
2013-04-06 14:33:00,66.9,47.7,29.81,SW,225,2.6,4.4,50,0.00,,,0.00,WUHU216HW,2013-04-06 12:33:00,
2013-04-06 14:38:00,66.7,48.0,29.80,WNW,293,2.9,3.8,51,0.00,,,0.00,WUHU216HW,2013-04-06 12:38:00,
2013-04-06 14:43:00,66.3,48.2,29.80,West,270,6.2,6.2,52,0.00,,,0.00,WUHU216HW,2013-04-06 12:43:00,
2013-04-06 14:48:00,66.7,48.0,29.80,West,279,2.8,7.1,51,0.00,,,0.00,WUHU216HW,2013-04-06 12:48:00,
2013-04-06 14:53:00,67.1,48.5,29.80,WSW,248,1.3,7.1,51,0.00,,,0.00,WUHU216HW,2013-04-06 12:53:00,
2013-04-06 14:58:00,68.5,49.2,29.79,SSE,158,0.0,5.3,50,0.00,,,0.00,WUHU216HW,2013-04-06 12:58:00,
2013-04-06 15:03:00,69.6,49.0,29.79,NNW,338,1.3,4.2,49,0.00,,,0.00,WUHU216HW,2013-04-06 13:03:00,
2013-04-06 15:08:00,68.7,48.6,29.79,WNW,293,5.3,5.3,49,0.00,,,0.00,WUHU216HW,2013-04-06 13:08:00,
2013-04-06 15:13:00,67.8,48.5,29.79,North,355,4.2,5.3,50,0.00,,,0.00,WUHU216HW,2013-04-06 13:13:00,
2013-04-06 15:18:00,67.2,48.5,29.79,ESE,103,1.9,5.1,51,0.00,,,0.00,WUHU216HW,2013-04-06 13:18:00,
2013-04-06 15:23:00,67.6,48.9,29.79,NW,310,1.6,2.2,51,0.00,,,0.00,WUHU216HW,2013-04-06 13:23:00,
2013-04-06 15:29:00,68.1,49.8,29.78,SSW,203,0.0,4.9,52,0.00,,,0.00,WUHU216HW,2013-04-06 13:29:00,
2013-04-06 15:34:00,68.5,48.6,29.78,NW,315,5.3,6.4,49,0.00,,,0.00,WUHU216HW,2013-04-06 13:34:00,
2013-04-06 15:39:00,68.7,49.3,29.78,North,0,3.5,6.4,50,0.00,,,0.00,WUHU216HW,2013-04-06 13:39:00,
2013-04-06 15:44:00,69.4,49.4,29.78,SSW,200,5.6,9.8,49,0.00,,,0.00,WUHU216HW,2013-04-06 13:44:00,
2013-04-06 15:49:00,69.6,49.0,29.78,NW,314,3.9,9.8,48,0.00,,,0.00,WUHU216HW,2013-04-06 13:49:00,
2013-04-06 15:54:00,69.2,49.8,29.78,WNW,286,1.8,6.2,50,0.00,,,0.00,WUHU216HW,2013-04-06 13:54:00,
2013-04-06 15:59:00,69.2,49.2,29.78,North,0,4.9,6.2,49,0.00,,,0.00,WUHU216HW,2013-04-06 13:59:00,
2013-04-06 16:06:00,69.4,49.4,29.78,WNW,295,3.2,5.3,49,0.00,,,0.00,WUHU216HW,2013-04-06 14:06:00,
2013-04-06 16:11:00,68.9,49.5,29.78,NW,311,2.5,6.2,50,0.00,,,0.00,WUHU216HW,2013-04-06 14:11:00,
2013-04-06 16:19:00,70.3,50.8,29.78,WNW,293,3.5,6.2,50,0.00,,,0.00,WUHU216HW,2013-04-06 14:19:00,
2013-04-06 16:24:00,69.6,50.1,29.77,WSW,248,3.8,5.3,50,0.00,,,0.00,WUHU216HW,2013-04-06 14:24:00,
2013-04-06 16:29:00,68.7,49.8,29.77,WSW,248,2.9,5.1,51,0.00,,,0.00,WUHU216HW,2013-04-06 14:29:00,
2013-04-06 16:34:00,69.8,49.9,29.77,NE,35,2.7,3.8,49,0.00,,,0.00,WUHU216HW,2013-04-06 14:34:00,
2013-04-06 16:39:00,70.1,50.0,29.77,West,270,1.3,4.4,49,0.00,,,0.00,WUHU216HW,2013-04-06 14:39:00,
2013-04-06 16:44:00,70.3,50.2,29.77,SW,225,0.0,4.4,49,0.00,,,0.00,WUHU216HW,2013-04-06 14:44:00,
2013-04-06 16:49:00,70.3,50.2,29.76,SW,225,1.1,3.1,49,0.00,,,0.00,WUHU216HW,2013-04-06 14:49:00,
2013-04-06 16:54:00,69.9,49.7,29.76,WNW,282,3.8,6.0,49,0.00,,,0.00,WUHU216HW,2013-04-06 14:54:00,
2013-04-06 16:59:00,69.6,50.1,29.76,WSW,248,2.2,6.0,50,0.00,,,0.00,WUHU216HW,2013-04-06 14:59:00,
2013-04-06 17:04:00,69.6,50.1,29.76,SW,225,7.6,7.6,50,0.00,,,0.00,WUHU216HW,2013-04-06 15:04:00,
2013-04-06 17:09:00,69.0,51.1,29.76,WSW,248,4.1,7.6,53,0.00,,,0.00,WUHU216HW,2013-04-06 15:09:00,
2013-04-06 17:15:00,68.5,51.1,29.76,WSW,248,3.8,4.4,54,0.00,,,0.00,WUHU216HW,2013-04-06 15:15:00,
2013-04-06 17:21:00,67.4,51.1,29.75,West,270,2.7,6.2,56,0.00,,,0.00,WUHU216HW,2013-04-06 15:21:00,
2013-04-06 17:26:00,67.6,51.8,29.76,West,270,5.5,6.2,57,0.00,,,0.00,WUHU216HW,2013-04-06 15:26:00,
2013-04-06 17:31:00,67.2,51.4,29.76,WSW,248,4.9,6.2,57,0.00,,,0.00,WUHU216HW,2013-04-06 15:31:00,
2013-04-06 17:36:00,66.9,51.1,29.76,SSW,203,3.5,6.2,57,0.00,,,0.00,WUHU216HW,2013-04-06 15:36:00,
2013-04-06 17:42:00,66.9,51.6,29.76,SSW,203,2.9,4.2,58,0.00,,,0.00,WUHU216HW,2013-04-06 15:42:00,
2013-04-06 17:47:00,66.5,51.1,29.76,SW,225,4.7,5.3,58,0.00,,,0.00,WUHU216HW,2013-04-06 15:47:00,
2013-04-06 17:52:00,66.0,51.3,29.76,WSW,246,2.3,6.7,59,0.00,,,0.00,WUHU216HW,2013-04-06 15:52:00,
2013-04-06 17:57:00,66.0,51.3,29.76,SW,225,1.5,6.7,59,0.00,,,0.00,WUHU216HW,2013-04-06 15:57:00,
2013-04-06 18:02:00,66.0,51.3,29.76,SSE,158,3.8,5.5,59,0.00,,,0.00,WUHU216HW,2013-04-06 16:02:00,
2013-04-06 18:07:00,66.0,51.3,29.76,South,180,2.9,5.5,59,0.00,,,0.00,WUHU216HW,2013-04-06 16:07:00,
2013-04-06 18:12:00,65.4,51.6,29.76,SSW,192,4.6,4.9,60,0.00,,,0.00,WUHU216HW,2013-04-06 16:12:00,
2013-04-06 18:17:00,64.9,50.7,29.76,SW,225,4.6,7.3,60,0.00,,,0.00,WUHU216HW,2013-04-06 16:17:00,
2013-04-06 18:22:00,64.2,50.4,29.76,SSW,203,6.6,10.7,61,0.00,,,0.00,WUHU216HW,2013-04-06 16:22:00,
2013-04-06 18:27:00,64.2,51.2,29.77,SSW,203,4.6,10.7,63,0.00,,,0.00,WUHU216HW,2013-04-06 16:27:00,
2013-04-06 18:32:00,63.8,51.2,29.76,SSW,203,4.9,6.9,64,0.00,,,0.00,WUHU216HW,2013-04-06 16:32:00,
2013-04-06 18:37:00,63.3,51.3,29.77,SSE,163,5.6,8.0,65,0.00,,,0.00,WUHU216HW,2013-04-06 16:37:00,
2013-04-06 18:42:00,62.9,51.3,29.77,SSW,206,1.8,8.0,66,0.00,,,0.00,WUHU216HW,2013-04-06 16:42:00,
2013-04-06 18:47:00,62.7,51.2,29.77,SSW,196,5.7,7.8,66,0.00,,,0.00,WUHU216HW,2013-04-06 16:47:00,
2013-04-06 18:52:00,62.4,51.2,29.76,SSW,194,4.8,7.8,67,0.00,,,0.00,WUHU216HW,2013-04-06 16:52:00,
2013-04-06 18:57:00,62.0,50.9,29.77,SW,225,5.3,6.2,67,0.00,,,0.00,WUHU216HW,2013-04-06 16:57:00,
2013-04-06 19:02:00,61.7,51.0,29.77,SSW,201,1.9,6.0,68,0.00,,,0.00,WUHU216HW,2013-04-06 17:02:00,
2013-04-06 19:07:00,61.5,50.9,29.77,WSW,248,0.0,4.0,68,0.00,,,0.00,WUHU216HW,2013-04-06 17:07:00,
2013-04-06 19:12:00,61.5,51.3,29.77,WNW,293,1.5,2.2,69,0.00,,,0.00,WUHU216HW,2013-04-06 17:12:00,
2013-04-06 19:17:00,61.5,51.3,29.77,NW,315,1.5,1.5,69,0.00,,,0.00,WUHU216HW,2013-04-06 17:17:00,
2013-04-06 19:22:00,61.5,51.3,29.77,WSW,248,1.1,1.5,69,0.00,,,0.00,WUHU216HW,2013-04-06 17:22:00,
2013-04-06 19:27:00,61.3,51.5,29.77,SSW,203,0.0,1.1,70,0.00,,,0.00,WUHU216HW,2013-04-06 17:27:00,
2013-04-06 19:32:00,61.1,51.4,29.77,SW,225,0.0,0.0,70,0.00,,,0.00,WUHU216HW,2013-04-06 17:32:00,
2013-04-06 19:37:00,60.9,51.6,29.78,WSW,248,1.3,1.3,71,0.00,,,0.00,WUHU216HW,2013-04-06 17:37:00,
2013-04-06 19:42:00,60.9,51.9,29.77,West,270,1.7,1.7,72,0.00,,,0.00,WUHU216HW,2013-04-06 17:42:00,
2013-04-06 19:47:00,60.9,51.9,29.77,West,270,2.2,2.2,72,0.00,,,0.00,WUHU216HW,2013-04-06 17:47:00,
2013-04-06 19:52:00,60.6,51.6,29.77,SSE,158,0.0,2.2,72,0.00,,,0.00,WUHU216HW,2013-04-06 17:52:00,
2013-04-06 19:57:00,60.4,51.8,29.78,SSW,211,2.0,2.4,73,0.00,,,0.00,WUHU216HW,2013-04-06 17:57:00,
2013-04-06 20:02:00,60.2,51.6,29.78,WSW,248,1.3,2.4,73,0.00,,,0.00,WUHU216HW,2013-04-06 18:02:00,
2013-04-06 20:07:00,60.0,51.4,29.78,SSW,203,0.0,1.3,73,0.00,,,0.00,WUHU216HW,2013-04-06 18:07:00,
2013-04-06 20:12:00,60.0,51.4,29.78,North,0,0.0,1.3,73,0.00,,,0.00,WUHU216HW,2013-04-06 18:12:00,
2013-04-06 20:18:00,59.9,51.6,29.78,WSW,248,0.0,0.6,74,0.00,,,0.00,WUHU216HW,2013-04-06 18:18:00,
2013-04-06 20:23:00,59.9,51.6,29.78,SE,135,0.0,0.0,74,0.00,,,0.00,WUHU216HW,2013-04-06 18:23:00,
2013-04-06 20:28:00,59.7,51.4,29.78,NE,45,0.0,1.1,74,0.00,,,0.00,WUHU216HW,2013-04-06 18:28:00,
2013-04-06 20:33:00,59.5,51.6,29.78,East,90,0.0,1.1,75,0.00,,,0.00,WUHU216HW,2013-04-06 18:33:00,
2013-04-06 20:38:00,59.5,51.6,29.78,ENE,68,0.0,0.0,75,0.00,,,0.00,WUHU216HW,2013-04-06 18:38:00,
2013-04-06 20:43:00,59.1,51.2,29.78,ENE,68,0.0,1.1,75,0.00,,,0.00,WUHU216HW,2013-04-06 18:43:00,
2013-04-06 20:48:00,58.8,50.9,29.79,NNW,338,0.0,1.1,75,0.00,,,0.00,WUHU216HW,2013-04-06 18:48:00,
2013-04-06 20:53:00,59.1,51.2,29.79,North,0,3.5,3.8,75,0.00,,,0.00,WUHU216HW,2013-04-06 18:53:00,
2013-04-06 20:58:00,59.0,51.0,29.79,NNE,23,1.5,3.8,75,0.00,,,0.00,WUHU216HW,2013-04-06 18:58:00,
2013-04-06 21:03:00,59.3,50.0,29.79,NNE,31,6.8,8.5,71,0.00,,,0.00,WUHU216HW,2013-04-06 19:03:00,
2013-04-06 21:08:00,60.6,47.5,29.79,ENE,68,14.7,14.7,62,0.00,,,0.00,WUHU216HW,2013-04-06 19:08:00,
2013-04-06 21:13:00,61.5,48.0,29.79,ENE,68,14.0,14.7,61,0.00,,,0.00,WUHU216HW,2013-04-06 19:13:00,
2013-04-06 21:18:00,61.8,47.9,29.79,NE,43,2.7,14.0,60,0.00,,,0.00,WUHU216HW,2013-04-06 19:18:00,
2013-04-06 21:23:00,61.5,47.1,29.79,ENE,68,6.0,10.0,59,0.00,,,0.00,WUHU216HW,2013-04-06 19:23:00,
2013-04-06 21:28:00,62.0,46.1,29.79,East,90,10.2,13.4,56,0.00,,,0.00,WUHU216HW,2013-04-06 19:28:00,
2013-04-06 21:33:00,62.4,45.9,29.79,NE,36,3.8,13.4,55,0.00,,,0.00,WUHU216HW,2013-04-06 19:33:00,
2013-04-06 21:38:00,62.4,45.4,29.79,East,90,9.3,9.3,54,0.00,,,0.00,WUHU216HW,2013-04-06 19:38:00,
2013-04-06 21:43:00,62.4,45.9,29.80,SSE,158,4.4,9.3,55,0.00,,,0.00,WUHU216HW,2013-04-06 19:43:00,
2013-04-06 21:48:00,62.2,46.2,29.79,East,90,7.6,7.6,56,0.00,,,0.00,WUHU216HW,2013-04-06 19:48:00,
2013-04-06 21:53:00,62.2,45.3,29.79,SE,135,6.0,7.6,54,0.00,,,0.00,WUHU216HW,2013-04-06 19:53:00,
2013-04-06 21:58:00,62.4,44.9,29.80,ENE,76,8.4,17.2,53,0.00,,,0.00,WUHU216HW,2013-04-06 19:58:00,
2013-04-06 22:03:00,62.2,44.8,29.80,ESE,103,7.1,17.2,53,0.00,,,0.00,WUHU216HW,2013-04-06 20:03:00,
2013-04-06 22:08:00,62.0,44.6,29.79,East,90,17.0,17.0,53,0.00,,,0.00,WUHU216HW,2013-04-06 20:08:00,
2013-04-06 22:14:00,61.8,44.5,29.79,East,98,16.1,21.4,53,0.00,,,0.00,WUHU216HW,2013-04-06 20:14:00,
2013-04-06 22:19:00,61.8,44.5,29.79,ESE,113,11.6,21.4,53,0.00,,,0.00,WUHU216HW,2013-04-06 20:19:00,
2013-04-06 22:24:00,62.2,43.8,29.79,ESE,113,13.6,16.3,51,0.00,,,0.00,WUHU216HW,2013-04-06 20:24:00,
2013-04-06 22:29:00,62.4,44.0,29.79,ESE,119,7.3,14.0,51,0.00,,,0.00,WUHU216HW,2013-04-06 20:29:00,
2013-04-06 22:34:00,61.8,44.5,29.79,East,90,8.0,14.0,53,0.00,,,0.00,WUHU216HW,2013-04-06 20:34:00,
2013-04-06 22:40:00,61.7,44.3,29.79,NW,315,2.2,11.1,53,0.00,,,0.00,WUHU216HW,2013-04-06 20:40:00,
2013-04-06 22:45:00,61.7,42.8,29.79,ESE,113,17.8,17.8,50,0.00,,,0.00,WUHU216HW,2013-04-06 20:45:00,
2013-04-06 22:50:00,61.5,42.7,29.79,East,90,14.0,17.8,50,0.00,,,0.00,WUHU216HW,2013-04-06 20:50:00,
2013-04-06 22:55:00,61.5,42.5,29.79,ENE,58,13.8,15.8,50,0.00,,,0.00,WUHU216HW,2013-04-06 20:55:00,
2013-04-06 23:00:00,61.5,42.7,29.79,East,98,7.1,15.8,50,0.00,,,0.00,WUHU216HW,2013-04-06 21:00:00,
2013-04-06 23:05:00,61.5,42.1,29.78,East,98,8.8,12.5,49,0.00,,,0.00,WUHU216HW,2013-04-06 21:05:00,
2013-04-06 23:10:00,61.3,42.5,29.78,SSE,156,4.8,12.3,50,0.00,,,0.00,WUHU216HW,2013-04-06 21:10:00,
2013-04-06 23:15:00,61.3,41.9,29.78,SE,135,13.4,17.4,49,0.00,,,0.00,WUHU216HW,2013-04-06 21:15:00,
2013-04-06 23:20:00,61.3,41.9,29.78,ESE,122,6.8,17.4,49,0.00,,,0.00,WUHU216HW,2013-04-06 21:20:00,
2013-04-06 23:25:00,61.3,41.9,29.78,ESE,102,15.6,18.1,49,0.00,,,0.00,WUHU216HW,2013-04-06 21:25:00,
2013-04-06 23:30:00,61.3,41.9,29.78,East,98,8.9,18.1,49,0.00,,,0.00,WUHU216HW,2013-04-06 21:30:00,
2013-04-06 23:35:00,61.3,41.9,29.78,ESE,113,8.9,13.4,49,0.00,,,0.00,WUHU216HW,2013-04-06 21:35:00,
2013-04-06 23:40:00,61.5,41.5,29.77,ESE,113,12.9,14.5,48,0.00,,,0.00,WUHU216HW,2013-04-06 21:40:00,
2013-04-06 23:45:00,61.3,41.4,29.77,ENE,68,9.8,14.5,48,0.00,,,0.00,WUHU216HW,2013-04-06 21:45:00,
2013-04-06 23:51:00,61.3,41.4,29.78,East,97,4.0,16.3,48,0.00,,,0.00,WUHU216HW,2013-04-06 21:51:00,
2013-04-06 23:56:00,61.1,41.2,29.78,SE,135,11.8,16.3,48,0.00,,,0.00,WUHU216HW,2013-04-06 21:56:00,